Hobart Regional Airport Hobart US
ICAO: KHBR
IATA: HBR
Category: Medium
Scheduled Services: No

Elevation: 1563 ft
TransAlt. 18000 ft.

Airport Communications:
ALTUS APP:125.1
ASOS:133.325
ALTUS DEP:125.1
MC ALESTER RDO:122.2
CTAF/UNICOM:122.8

KHBR Zoom In..

Runways:

(A) RW 03 length 5297 ft width 150 ft
---- / hdg 38

(B) RW 12 length 5295 ft width 150 ft
---- / hdg 128

(C) RW 17 length 5507 ft width 100 ft
---- / hdg 173

(D) RW 21 length 5297 ft width 150 ft
---- / hdg 218

(E) RW 30 length 5295 ft width 150 ft
---- / hdg 308

(F) RW 35 length 5507 ft width 100 ft
---- / hdg 353

Location; KHBR
Day. 23 / Time. 21.53 Zulu
* Altimeter: 29.99
* Temperature: 33° c. 91.4°f.
* Wind from: 170° Speed 14 kn with Gusts up to 23 kn.
Dewpoint: 17° c.
Visibility: 10 Statute Miles.
Clouds: Few 6000 ft.

KHBR 232153Z AUTO 17014G23KT 10SM FEW060 33/17 A2999 RMK AO2 SLP135 T03280167


Wind From 170°
Speed 14 kn.

 
 
jpsmedia.com for Web Design SOUNDCLOUD worldairports.se 2018   terms of use